Regional Weather Roundup
Issued by NWS Charleston, SC

Current Version | Previous Version | Graphics & Text | Print | Product List | Glossary On
Versions: 1 2 3 4 5 6 7 8 9 10 11 12 13 14 15 16 17 18 19 20 21 22 23 24 25 26 27 28 29 30 31 32 33 34 35 36 37 38 39 40 41 42 43 44 45 46 47 48 49 50
365 ASUS42 KCHS 240627 RWRCHS REGIONAL WEATHER ROUNDUP NATIONAL WEATHER SERVICE CHARLESTON SC 200 AM EDT WED MAY 24 2017 NOTE: "FAIR" INDICATES FEW OR NO CLOUDS BELOW 12,000 FEET WITH NO SIGNIFICANT WEATHER AND/OR OBSTRUCTIONS TO VISIBILITY. NOT ALL STATIONS ARE QUALITY CONTROLLED. USE DATA WITH CAUTION... ESPECIALLY DEWPOINT OBSERVATIONS. SCZ027-030-031-034>040-042>050-240700- ...SOUTHEAST SOUTH CAROLINA... CITY SKY/WX TMP DP RH WIND PRES REMARKS N CHARLESTON MOCLDY 71 69 93 SW10 29.69F 6HR MIN TEMP: 68; 6HR MAX TEMP: 71; 6HR PCP: 0.25; WATERFRONT PRK N/A 72 70 93 SW6 29.68F JOHNS ISLAND MOCLDY 73 72 94 SW8 29.70F PINOPOLIS N/A 70 70 100 SW6 29.60F MONCKS CORNER MOCLDY 68 68 100 SW6 29.69S SUMMERVILLE FAIR 68 68 100 CALM 29.70S BEAUFORT MCAS CLOUDY 72 72 100 S9 29.71S 6HR MIN TEMP: 70; 6HR MAX TEMP: 73; 6HR PCP: 0.25; BEAUFORT ARPT CLOUDY 72 70 94 SW9G18 29.71S HILTON HEAD IS CLOUDY 75 72 88 SW13G20 29.72F WALTERBORO RAIN 70 68 94 SW7 29.70F ALLENDALE CLOUDY 70 70 100 CALM 29.69S ...SOUTHERN MIDLANDS AND PEE DEE... CITY SKY/WX TMP DP RH WIND PRES REMARKS GEORGETOWN FAIR 70 68 94 SW6 29.69F KINGSTREE CLOUDY N/A N/A N/A W5 29.69S ORANGEBURG CLOUDY 69 68 96 SW7 29.69S 6HR MIN TEMP: 68; 6HR MAX TEMP: 69; 6HR PCP: 0.03; BARNWELL DRIZZLE 70 70 100 SW7 29.70S AIKEN CLOUDY 66 64 94 SW6 29.73S MANNING CLOUDY 70 70 100 SW12 29.69S COLUMBIA CLOUDY 69 66 90 W5 29.68S 6HR MIN TEMP: 67; 6HR MAX TEMP: 69; 6HR PCP: 0.07; SUMTER MOCLDY 68 66 94 SW6 29.66R 6HR MIN TEMP: 68; 6HR MAX TEMP: 69; 6HR PCP: TRACE; FLORENCE CLOUDY 68 68 100 W6 29.68F 6HR MIN TEMP: 68; 6HR MAX TEMP: 69; 6HR PCP: 0.08; MYRTLE BEACH CLOUDY 69 67 93 W7 29.69S N MYRTLE BEACH CLOUDY 70 68 93 SW7 29.68S 6HR MIN TEMP: 69; 6HR MAX TEMP: 72; 6HR PCP: 0.24; $$ GAZ063-065-086>088-099>101-113>116-118-119-134>141-150-240700- ...SOUTHEAST GEORGIA... CITY SKY/WX TMP DP RH WIND PRES REMARKS SAVANNAH ARPT MOCLDY 74 68 81 SW10 29.72S 6HR MIN TEMP: 72; 6HR MAX TEMP: 76; 6HR PCP: 0.04; HUNTER AAF CLOUDY 72 72 100 SW9 29.70F 6HR MIN TEMP: 70; 6HR MAX TEMP: 74; 6HR PCP: 0.24; FORT STEWART CLOUDY 72 68 89 SW7 29.71S 6HR MIN TEMP: 72; 6HR MAX TEMP: 74; 6HR PCP: 0.24; STATESBORO HVY RAIN 70 70 100 NW7 29.72R SYLVANIA RAIN 69 67 95 W5 29.72R CLAXTON MOCLDY N/A N/A N/A S3 29.72R ...CSRA...CENTRAL AND FAR SOUTHEAST GEORGIA... CITY SKY/WX TMP DP RH WIND PRES REMARKS THOMSON FOG 66 65 98 SW5 29.74F VSB 3/4 AUGUSTA-BUSH CLOUDY 71 68 90 CALM 29.69S 6HR MIN TEMP: 69; 6HR MAX TEMP: 71; 6HR PCP: TRACE; AUGUSTA-DANIEL CLOUDY 69 66 90 SW3 29.69F SWAINSBORO TSTM 68 68 100 SW7G20 29.72S VIDALIA CLOUDY 72 72 100 SW3 29.71F EASTMAN CLOUDY 73 73 100 SW5 29.72F HAZLEHURST FAIR 73 73 100 SW10G16 29.71S ALMA CLOUDY 72 69 90 S7 29.73S 6HR MIN TEMP: 72; 6HR MAX TEMP: 78; 6HR PCP: TRACE; WAYCROSS CLOUDY 74 74 100 SW8 29.74S JESUP MOCLDY 72 68 88 CALM 29.75S BAXLEY FAIR 72 72 100 SW7 29.72S BRUNSWICK CLOUDY 73 72 94 S8G16 29.76S SAINT SIMONS LGT RAIN 74 68 81 SW10G20 29.75S 6HR MIN TEMP: 74; 6HR MAX TEMP: 81; 6HR PCP: 0.04; $$ SCZ027-028-034-036>038-045-046-048>050-GAZ119-141-240700- ...LAKE AND SUPPLEMENTAL COASTAL OBSERVATIONS... STATION/POSITION TIME TEMP WIND PRES WAVE SWELL AIR SEA DIR/SP/G HT/PER HT/PER/DIR (UTC) (F) (DEG/KT/KT) (MB) (FT/S) (FT/S/D) WINYAH BAY 0545 71 250/ 6 1005.0S LAKE MURRAY 0620 68 240/ 6/ 9 1004.4 ACE BASIN NERRS 0545 72 CALM 1006.0F FORT PULASKI 0600 74 230/ 7/ 13 1006.6 SAPELO ISLAND 0600 73 210/ 11 1007.0 $$ ANZ835-935-AMZ111-154-330-350-352-354-370-450-454-472-240700- ...C-MAN AND BUOY OBSERVATIONS... STATION/POSITION TIME TEMP WIND PRES WAVE SWELL AIR SEA DIR/SP/G HT/PER HT/PER/DIR (UTC) (F) (DEG/KT/KT) (MB) (FT/S) (FT/S/D) BUOY 41004 0610 78 77 230/ 21/ 27 1005.5 BUOY 41008 0550 77 78 200/ 19/ 23 1006.7F 6/ 5 FOLLY BEACH CMAN 0600 77 220/ 20/ 25 1006.1F CAPERS NEARSHORE 0608 80 76 240/ 19/ 27 1005.0F FRIPP NEARSHORE 0608 78 78 220/ 21/ 31 1005.4F STATION/POSITION TIME TEMP WIND PRES WAVE SWELL AIR SEA DIR/SP/G HT/PER HT/PER/DIR (UTC) (F) (DEG/KT/KT) (MB) (FT/S) (FT/S/D) 5E ST. MARYS GA 0600 79 N/A 2/ 6 FRYING PAN BUOY 0610 78 77 230/ 17/ 23 1004.8 BUOY 41025 0550 72 75 220/ 23/ 27 1005.3F 7/ 6 2/170/11 CAPE LOOKOUT NC 0600 72 210/ 14/ 18 1004.8F BUOY 41002 0550 77 76 180/ 23/ 27 1009.8F 7/ 7 2/ 40/12 BUOY 41010 0610 78 79 200/ 16/ 19 1010.9 ST AUGUSTINE FL 0600 75 78 240/ 7/ 9 1009.9R $$

USA.gov is the U.S. government's official web portal to all federal, state and local government web resources and services.